User: anonymous   Login
Location: Erlenbrunn
(49.1717°N, 7.6142°E)
Time: 02:17:27
(UTC+00:00)
Language:

Meteor 2-2 Rocket - Orbit

View from above orbital plane
View from above orbital plane
View from above satellite
View from above satellite

Ground track
Ground track

The orbit data is extracted from the following two-line orbital elements,

1 09662U 77002B   21060.45534678 -.00000006  00000-0 -11880-4 0  9990
2 09662  81.2740 220.6935 0051252 256.0648 103.4814 14.00949133255849
Epoch (UTC): 01 March 2021 10:55:41
Eccentricity: 0.0051252
inclination: 81.2740°
perigee height: 853 km
apogee height: 928 km
right ascension of ascending node: 220.6935°
argument of perigee: 256.0648°
revolutions per day: 14.00949133
mean anomaly at epoch: 103.4814°
orbit number at epoch: 25584

The dashed part of the orbit path shows where the satellite is in the earth's shadow,  

DLR